Guam Agana, GU

1:23 AM ChST on October 20, 2019 (GMT +1000)
Guam International

Weather History for PGUM - August, 2019

Change the Weather History Date:

Thursday, August 1, 2019

  Actual Average Record
Temperature  
Mean Temperature 84 °F -  
Max Temperature 90 °F 85 °F 90 °F (2012)
Min Temperature 78 °F 75 °F 73 °F (1997)
Cooling Degree Days 19    
Growing Degree Days 34 (Base 50)    
Moisture  
Dew Point 77 °F    
Average Humidity 79    
Maximum Humidity 88    
Minimum Humidity 60    
Precipitation  
Precipitation 0.08 in - - ()
Sea Level Pressure  
Sea Level Pressure 29.75 in    
Wind  
Wind Speed 6 mph (WNW)    
Max Wind Speed 16 mph    
Max Gust Speed 22 mph    
Visibility 10 miles    
Events Rain    
Averages and records for this station are not official NWS values.
T = Trace of Precipitation, MM = Missing Value Source: NWS Daily Summary

Daily Weather History Graph

Daily Weather History Graph

Search for Another Location

Airport or City:

Astronomy

Aug. 01, 2019 Rise Set
Actual Time 6:05 AM ChST 6:48 PM ChST
Civil Twilight 5:42 AM ChST 7:11 PM ChST
Nautical Twilight 5:16 AM ChST 7:37 PM ChST
Astronomical Twilight 4:49 AM ChST 8:04 PM ChST
Moon 5:51 AM ChST (8/1) 7:02 PM ChST (8/1)
Length of Visible Light 13h 28m
Length of Day
12h 43m
Waning Crescent, 0% of the Moon is Illuminated
Aug 1
Waning Crescent
Aug 1
New
Aug 8
First Quarter
Aug 15
Full
Aug 24
Last Quarter

Hourly Weather History & Observations

Time (ChST) Temp. Heat Index Dew Point Humidity Pressure Visibility Wind Dir Wind Speed Gust Speed Precip Events Conditions
12:54 AM 80.1 °F 85.4 °F 75.9 °F 87% 29.78 in 10.0 mi SSE 3.5 mph - N/A   Clear
1:54 AM 80.1 °F 85.4 °F 75.9 °F 87% 29.75 in 10.0 mi Calm Calm - N/A   Clear
2:54 AM 79.0 °F - 75.0 °F 88% 29.74 in 10.0 mi Calm Calm - N/A   Clear
3:54 AM 80.1 °F 85.4 °F 75.9 °F 87% 29.74 in 10.0 mi Calm Calm - N/A   Clear
4:54 AM 79.0 °F - 75.0 °F 88% 29.73 in 10.0 mi Calm Calm - N/A   Clear
5:54 AM 80.1 °F 85.4 °F 75.9 °F 87% 29.74 in 10.0 mi Calm Calm - N/A   Clear
6:54 AM 81.0 °F 87.3 °F 75.9 °F 85% 29.75 in 10.0 mi Calm Calm - N/A   Clear
7:54 AM 82.9 °F 91.8 °F 77.0 °F 82% 29.77 in 10.0 mi West 6.9 mph - N/A   Scattered Clouds
8:54 AM 84.9 °F 95.3 °F 77.0 °F 77% 29.77 in 10.0 mi West 9.2 mph - N/A   Partly Cloudy
9:54 AM 88.0 °F 101.3 °F 78.1 °F 72% 29.76 in 10.0 mi West 11.5 mph - N/A   Clear
10:54 AM 88.0 °F 100.2 °F 77.0 °F 70% 29.76 in 10.0 mi West 12.7 mph - N/A   Clear
11:54 AM 89.1 °F 101.4 °F 77.0 °F 67% 29.75 in 10.0 mi West 12.7 mph - N/A   Clear
12:54 PM 90.0 °F 104.5 °F 78.1 °F 68% 29.75 in 10.0 mi WNW 9.2 mph - N/A   Clear
1:54 PM 89.1 °F 104.4 °F 79.0 °F 72% 29.72 in 10.0 mi West 16.1 mph - N/A   Mostly Cloudy
2:54 PM 88.0 °F 101.3 °F 78.1 °F 72% 29.70 in 10.0 mi WNW 12.7 mph - N/A   Clear
3:54 PM 89.1 °F 101.4 °F 77.0 °F 67% 29.71 in 10.0 mi WNW 12.7 mph - N/A   Partly Cloudy
4:54 PM 86.0 °F 96.9 °F 77.0 °F 74% 29.72 in 10.0 mi WNW 11.5 mph - N/A   Scattered Clouds
5:54 PM 84.9 °F 94.1 °F 75.9 °F 74% 29.72 in 10.0 mi NW 10.4 mph - N/A   Partly Cloudy
6:34 PM 84.0 °F 93.7 °F 77.0 °F 79% 29.75 in 10.0 mi WNW 8.1 mph - N/A   Mostly Cloudy
6:54 PM 84.0 °F 92.6 °F 75.9 °F 76% 29.73 in 10.0 mi WNW 10.4 mph - N/A   Mostly Cloudy
7:14 PM 82.0 °F 87.9 °F 73.9 °F 76% 29.75 in 9.0 mi NW 9.2 mph - 0.00 in Rain Light Rain
7:54 PM 82.0 °F 88.6 °F 75.0 °F 79% 29.73 in 10.0 mi WNW 12.7 mph - 0.00 in   Mostly Cloudy
8:54 PM 84.0 °F 93.7 °F 77.0 °F 79% 29.75 in 10.0 mi NNW 6.9 mph - N/A   Scattered Clouds
9:06 PM 82.9 °F 91.8 °F 77.0 °F 82% 29.77 in 10.0 mi WNW 4.6 mph - N/A   Mostly Cloudy
9:30 PM 82.9 °F 91.8 °F 77.0 °F 82% 29.77 in 10.0 mi NW 8.1 mph - N/A   Scattered Clouds
9:54 PM 82.0 °F 89.4 °F 75.9 °F 82% 29.76 in 10.0 mi SW 5.8 mph - N/A   Scattered Clouds
10:03 PM 82.0 °F 89.4 °F 75.9 °F 82% 29.78 in 10.0 mi West 3.5 mph - N/A   Mostly Cloudy
10:24 PM 82.0 °F 90.2 °F 77.0 °F 85% 29.78 in 10.0 mi WNW 10.4 mph - N/A   Mostly Cloudy
10:41 PM 81.0 °F 87.9 °F 77.0 °F 88% 29.78 in 9.0 mi WNW 15.0 mph 21.9 mph N/A   Mostly Cloudy
10:54 PM 81.0 °F 87.9 °F 77.0 °F 88% 29.75 in 10.0 mi NW 11.5 mph - N/A   Mostly Cloudy
11:02 PM 81.0 °F 87.9 °F 77.0 °F 88% 29.77 in 9.0 mi WNW 10.4 mph - N/A   Mostly Cloudy
11:22 PM 80.1 °F 85.4 °F 75.9 °F 87% 29.77 in 10.0 mi West 8.1 mph - N/A   Overcast
11:54 PM 80.1 °F 85.4 °F 75.9 °F 87% 29.74 in 10.0 mi West 6.9 mph - N/A   Mostly Cloudy